806  
ASUS41 KAKQ 250417  
RWRAKQ  
 
REGIONAL WEATHER ROUNDUP  
NATIONAL WEATHER SERVICE WAKEFIELD VA  
1200 AM EDT FRI SEP 25 2020  
 
NOTE: "FAIR" INDICATES FEW OR NO CLOUDS BELOW 12,000 FEET WITH NO  
SIGNIFICANT WEATHER AND/OR S TO VISIBILITY
. * = DENOTES  
STATION MAY NOT REPORT PRECIPITATION (E.G., RAIN,SNOW,ETC.),
 
THUNDER OR FOG.  
 
VAZ042-051-052>054-056-250500-  
NORTHERN VIRGINIA  
 
CITY SKY/WX TMP DP RH WIND PRES REMARKS
 
WASH NATIONAL MOCLDY 64 61 90 S5 30.06S  
DULLES MOCLDY 61 59 93 CALM 30.06S  
FORT BELVOIR MOCLDY 59 58 95 CALM 30.06S FOG  
QUANTICO MOCLDY 63 61 93 CALM 30.07S  
FREDERICKSBRG* MOCLDY 62 62 100 CALM 30.06S  
STAFFORD* MOCLDY 59 59 100 CALM 30.10S FOG  
WARRENTON FOG 56 54 91 CALM 30.05S VSB 1  
CULPEPER* MOCLDY 58 56 95 CALM 30.07S FOG  
MANASSAS* MOCLDY 57 57 100 CALM 30.07R  
LEESBURG* MOCLDY 55 55 100 W5 30.08R  
WINCHESTER MOCLDY 55 54 94 CALM 30.05R  
FRONT ROYAL* FAIR 59 59 100 S6 30.05S  
LURAY* FAIR 55 55 100 CALM 30.08S  

 
 
VAZ048-049-060>072-079>083-250500-  
CENTRAL AND SOUTH CENTRAL VIRGINIA  
 
CITY SKY/WX TMP DP RH WIND PRES REMARKS
 
RICHMOND CLOUDY 65 61 87 SW7 30.07S  
CHESTERFIELD* CLOUDY 63 60 90 CALM 30.08S  
PETERSBURG* CLOUDY 62 61 94 CALM 30.09S  
HANOVER CLOUDY 65 60 84 SW5 30.09S  
TAPPAHANNOCK* CLOUDY 64 64 100 S5 30.08R  
QUINTON* CLOUDY 64 64 100 CALM 30.07S  
CHARLOTTSVILLE MOCLDY 63 60 90 CALM 30.06F  
GORDONSVILLE* FOG 60 60 100 CALM 30.06F VSB 1  
ORANGE* MOCLDY 59 59 100 S3 30.07S  
LOUISA* CLOUDY 62 60 96 CALM 30.11S  
BUMPASS* CLOUDY 62 61 95 SW3 30.07R  
FARMVILLE* CLOUDY 60 56 86 SW3 30.08R  
CREWE* MOCLDY N/A N/A N/A CALM 30.08F  
FORT PICKETT* CLOUDY 63 63 100 CALM 30.09S  
CHASE CITY* CLOUDY 59 57 93 CALM 30.10S  
CLARKSVILLE* FAIR 59 59 100 CALM 30.09R  
SOUTH HILL* CLOUDY 62 60 93 CALM 30.14S  
LAWRENCEVILLE* NOT AVBL  
EMPORIA* CLOUDY 63 63 99 MISG N/A  

 
 
VAZ088>098-250500-  
SOUTHEAST VIRGINIA  
 
CITY SKY/WX TMP DP RH WIND PRES REMARKS
 
NORFOLK CLOUDY 66 60 81 S3 30.08S  
VIRGINIA BEACH CLOUDY 67 60 78 SW5 30.08S  
NORFOLK NAVAL CLOUDY 65 59 81 CALM 30.10R  
WEST POINT* CLOUDY 64 63 94 SW3 30.10R  
SALUDA* CLOUDY 64 64 100 SW5 30.08R  
NEWPORT NEWS CLOUDY 67 61 81 SW5 30.09F  
LANGLEY AFB CLOUDY 65 64 97 SW5 30.09S  
FORT EUSTIS CLOUDY 65 63 91 CALM 30.06F  
WILLIAMSBURG* CLOUDY 66 64 94 CALM 30.09S  
HR EXEC AP* CLOUDY 62 62 100 CALM 30.09S  
FRANKLIN* CLOUDY 63 62 98 S3 30.08F  
US460-WAKEFLD LGT RAIN 64 62 93 CALM 30.08S  

 
 
VAZ020-022-025-037-045-250500-  
WEST CENTRAL AND SOUTHWEST VIRGINIA  
 
CITY SKY/WX TMP DP RH WIND PRES REMARKS
 
STAUNTON* MOCLDY 56 55 98 CALM 30.10S  
WAYNESBORO* FAIR 57 57 99 CALM 30.09S  
HOT SPRINGS VA NOT AVBL  
LYNCHBURG CLOUDY 60 55 83 CALM 30.08F  
DANVILLE CLOUDY 60 58 92 CALM 30.09F  
SOUTH BOSTON* MOCLDY 59 57 95 CALM 30.09S  
MARTINSVILLE MOCLDY 57 57 100 CALM 30.11S  
ROANOKE CLOUDY 62 55 77 CALM 30.10S  
BLACKSBURG DRIZZLE 57 57 100 CALM 30.13F  
DUBLIN* RAIN N/A N/A N/A CALM 30.13R  
MARION* LGT RAIN 57 57 98 E3 30.13F  
HILLSVILLE* LGT RAIN 54 53 96 CALM 30.11R  
RICHLANDS* RAIN 55 54 98 CALM 30.09S  
WISE* CLOUDY 55 55 100 S6 30.09S  
ABINGDON* LGT RAIN 57 55 94 E6 30.09R  

 
 
MDZ021>025-VAZ099-100-250500-  
SOUTHERN MARYLAND AND THE DELMARVA PENINSULA  
 
CITY SKY/WX TMP DP RH WIND PRES REMARKS
 
PATUXENT RIVER MOCLDY 64 61 90 CALM 30.06S  
BAY BRIDGE APT MOCLDY 64 64 100 SW3 30.05S  
LEONARDTOWN MOCLDY 63 61 94 CALM 30.08S  
DOVER PTCLDY 61 60 97 S6 30.04R  
GEORGETOWN MOCLDY 62 61 96 SW5 30.06S  
EASTON MOCLDY 63 62 96 S3 30.10R  
CAMBRIDGE CLEAR 61 61 100 CALM 30.06S  
SALISBURY MOCLDY 63 60 90 S3 30.07R  
TANGIER NOT AVBL  
OCEAN CITY MOCLDY 63 60 90 SW3 30.08R  
WALLOPS ISLAND CLOUDY 65 61 87 SW6 30.08R  
ACCOMACK* CLOUDY 61 58 90 CALM 30.08S  

 
 
NCZ012>017-030>032-250500-  
NORTH CENTRAL AND EASTERN NORTH CAROLINA  
 
CITY SKY/WX TMP DP RH WIND PRES REMARKS
 
ROANOKE RAPIDS FAIR 61 61 100 CALM 30.08F  
RALEIGH CLOUDY 64 63 96 N3 30.08F FOG  
ELIZABETH CITY CLOUDY 65 64 97 CALM 30.09S  
AHOSKIE* LGT RAIN 62 62 100 SE5 30.09S  
EDENTON* CLOUDY 66 64 93 CALM 30.09S  
CURRITUCK* LGT RAIN 63 63 100 CALM 30.08S  
KILL DEVIL HLS CLOUDY 65 62 91 CALM 30.08F  
MANTEO CLOUDY 64 61 91 CALM 30.10F  
CAPE HATTERAS CLOUDY 68 63 84 CALM 30.08F  
TARBORO* FAIR 63 62 98 CALM 30.09S FOG  
GOLDSBORO MOCLDY 64 60 88 CALM 30.06S FOG  
WASHINGTON CLOUDY 64 61 90 CALM 30.08S  
GREENVILLE MOCLDY 64 61 88 CALM 30.10R  
NEW BERN LGT RAIN 66 63 90 E5 30.08F  
WILMINGTON CLOUDY 70 66 87 N3 30.06S  

 
 
VAZ048-250500-  
ELSEWHERE  
 
CITY SKY/WX TMP DP RH WIND PRES REMARKS
 
HARRISBURG PA CLOUDY 61 57 87 CALM 30.03S  
BALTIMORE MOCLDY 63 60 90 SW7 30.05R  
ANNAPOLIS MOCLDY 63 62 97 CALM 30.05S  
ANDREWS AFB MOCLDY 60 59 99 S3 30.05S  
PHILADELPHIA MOCLDY 65 60 84 NW3 30.04S  
HENDERSON NC LGT RAIN 58 58 99 CALM 30.10R  
GREENSBORO CLOUDY 59 59 100 NE5 30.09R  
ROCKY MOUNT MOCLDY 64 63 96 CALM 30.09R  

 
 
VAZ100-250500-  
MARINE  
 
STATION/POSITION TIME TEMP WIND PRES WAVE SWELL
 
AIR SEA DIR/SP/G HT/PER HT/PER  
(UTC) (F) (DEG/KT/KT) (MB) (FT/S) (FT/S)  
CAPE MAY NJ 0330 65 66 210/ 8/ 11 1017.5R  
LEWES DE 0330 63 67 220/ 5/ 8 1017.7F  
15NM E FENWICK I 0350 N/A 2/11  
OCEAN-CITY-INLET 0330 65 66 230/ 6/ 7 1019.1R  
44089 WALLOPS IS 0356 69 N/A 2/11 2/11  
WACHAPREAGUE VA 0330 63 66 240/ 2/ 4 1018.7R  
THOMAS POINT MD 0400 65 70 200/ 11/ 12 1018.7R  
GOOSES REEF MD 0400 67 70 250/ 8/ 10 N/A 1  
COVE POINT MD 0330 240/ 7/ 9 1018.5R  
SOLOMONS ISLAND 0330 66 71 260/ 4/ 5 1017.9R  
BISHOPS HEAD MD 0330 68 68 250/ 10/ 11 1018.0S  
PINEY POINT MD 0330 250/ 4/ 9 N/A  
CAMBRIDGE MD 0330 64 69 200/ 3/ 5 1017.9R  
LEWISETTA VA 0330 66 66 240/ 7/ 9 1018.0F  
RAPPAHANNOCK LGT 0330 220/ 12/ 13 1018.8F  
STINGRAY PT 0400 67 69 250/ 12/ 14 1020.8 1  
YORK RVR RNG VA 0330 67 250/ 8/ 9 N/A  
YORKTOWN VA 0330 65 69 240/ 2/ 3 1018.2F  
DOMINION TERM VA 0330 67 330/ 5/ 8 1018.8S  
KIPTOPEKE VA 0330 69 290/ 10/ 12 N/A  
CAPE HENRY VA 0330 66 270/ 4/ 5 1019.0F  
WILLOUBY STN VA 0330 67 290/ 5/ 6 1018.0S  
S CRANEY ISL VA 0330 67 300/ 2/ 2 1018.5R  
64NM E OF VA BCH 0350 69 69 230/ 6/ 8 1018.6F 2/ 9 2/ 9  
DUCK PIER NC 0330 67 CALM / 1 1018.6F  
44100 DUCK FRF 0356 72 N/A 2/11 2/11  
44056 DUCK FRF 0356 70 N/A 2/10 2/11  
OREGON INLET NC 0330 66 69 100/ 1/ 1 1019.0F  
HATTERAS NC 0330 69 71 40/ 3/ 4 1018.8F  
DIAMOND SHLS NC 0400 78 74 180/ 12/ 16 N/A  
CAPE LOOKOUT NC 0400 74 150/ 5/ 5 1018.2F  

 
 
 
CLICK HERE TO GO TO PREVIOUS BULLETINS.

The Nexlab VA Page
The Nexlab NC Page
The Nexlab MD Page Main Text Page